When you browse on this site, cookies collect data to enhance your experience and personalize the content and advertising you see.
Visit our Privacy Policy to learn more. By continuing to use the site, you agree to this use of cookies and data.

Hourly Weather Zubachiha

Today, 12 July, Sunday

Time Temperature Precipitation Wind Pressure Humidity
00:00 +15°C° 0 mm 2 mps 746 mmHg 90%
01:00 +13°C° 0 mm 2 mps 746 mmHg 90%
02:00 +12°C° 0 mm 2 mps 746 mmHg 88%
03:00 +13°C° 0 mm 2 mps 746 mmHg 89%
04:00 +13°C° 0 mm 1 mps 747 mmHg 89%
05:00 +13°C° 0 mm 1 mps 747 mmHg 89%
06:00 +14°C° 0 mm 1 mps 747 mmHg 85%
07:00 +15°C° 0 mm 1 mps 747 mmHg 82%
08:00 +15°C° 0 mm 1 mps 747 mmHg 80%
09:00 +15°C° 0.6 mm 1 mps 747 mmHg 84%
10:00 +15°C° 0.6 mm 1 mps 747 mmHg 88%
11:00 +15°C° 0.6 mm 1 mps 747 mmHg 92%
12:00 +14°C° 1.4 mm 1 mps 747 mmHg 93%
13:00 +14°C° 1.4 mm 1 mps 747 mmHg 95%
14:00 +14°C° 1.4 mm 1 mps 747 mmHg 96%
15:00 +14°C° 0.1 mm 1 mps 747 mmHg 96%
16:00 +14°C° 0.1 mm 1 mps 747 mmHg 96%
17:00 +14°C° 0.1 mm 1 mps 747 mmHg 95%
18:00 +14°C° 0 mm 1 mps 747 mmHg 96%
19:00 +14°C° 0 mm 1 mps 747 mmHg 96%
20:00 +13°C° 0 mm 1 mps 747 mmHg 96%
21:00 +13°C° 0 mm 1 mps 746 mmHg 96%
22:00 +13°C° 0 mm 2 mps 746 mmHg 97%
23:00 +13°C° 0 mm 2 mps 746 mmHg 97%

Tomorrow, 13 July, Monday

Time Temperature Precipitation Wind Pressure Humidity
00:00 +13°C° 0 mm 2 mps 746 mmHg 97%
01:00 +13°C° 0 mm 2 mps 746 mmHg 97%
02:00 +13°C° 0 mm 1 mps 746 mmHg 97%
03:00 +13°C° 0.2 mm 2 mps 745 mmHg 97%
04:00 +13°C° 0.2 mm 2 mps 745 mmHg 97%
05:00 +13°C° 0.2 mm 2 mps 745 mmHg 97%
06:00 +13°C° 0 mm 2 mps 745 mmHg 97%
07:00 +14°C° 0 mm 2 mps 745 mmHg 96%
08:00 +14°C° 0 mm 2 mps 745 mmHg 95%
09:00 +14°C° 0 mm 2 mps 745 mmHg 93%
10:00 +15°C° 0 mm 2 mps 745 mmHg 90%
11:00 +15°C° 0 mm 2 mps 745 mmHg 88%
12:00 +16°C° 0 mm 2 mps 744 mmHg 87%
13:00 +16°C° 0 mm 2 mps 744 mmHg 86%
14:00 +16°C° 0 mm 2 mps 744 mmHg 84%
15:00 +16°C° 0 mm 2 mps 744 mmHg 85%
16:00 +16°C° 0 mm 2 mps 744 mmHg 85%
17:00 +16°C° 0 mm 2 mps 743 mmHg 85%
18:00 +15°C° 0 mm 2 mps 743 mmHg 86%
19:00 +15°C° 0 mm 2 mps 743 mmHg 87%
20:00 +15°C° 0 mm 2 mps 743 mmHg 87%
21:00 +14°C° 0 mm 2 mps 743 mmHg 88%
22:00 +14°C° 0 mm 2 mps 743 mmHg 89%
23:00 +14°C° 0 mm 1 mps 743 mmHg 90%

Day after tomorrow, 14 July, Tuesday

Time Temperature Precipitation Wind Pressure Humidity
00:00 +14°C° 0 mm 2 mps 743 mmHg 90%
01:00 +14°C° 0 mm 2 mps 743 mmHg 90%
02:00 +14°C° 0 mm 2 mps 743 mmHg 91%
03:00 +14°C° 0 mm 2 mps 743 mmHg 90%
04:00 +14°C° 0 mm 2 mps 743 mmHg 90%
05:00 +15°C° 0 mm 2 mps 742 mmHg 89%
06:00 +16°C° 0 mm 3 mps 742 mmHg 84%
07:00 +17°C° 0 mm 3 mps 742 mmHg 78%
08:00 +18°C° 0 mm 3 mps 743 mmHg 72%
09:00 +19°C° 0 mm 4 mps 742 mmHg 69%
10:00 +19°C° 0 mm 4 mps 742 mmHg 66%
11:00 +20°C° 0 mm 4 mps 742 mmHg 64%
12:00 +20°C° 0 mm 4 mps 742 mmHg 65%
13:00 +20°C° 0 mm 4 mps 742 mmHg 66%
14:00 +20°C° 0 mm 3 mps 742 mmHg 67%
15:00 +20°C° 0 mm 3 mps 742 mmHg 70%
16:00 +20°C° 0 mm 3 mps 741 mmHg 72%
17:00 +20°C° 0 mm 3 mps 741 mmHg 74%
18:00 +19°C° 0 mm 3 mps 740 mmHg 78%
19:00 +18°C° 0 mm 3 mps 740 mmHg 81%
20:00 +17°C° 0 mm 3 mps 740 mmHg 84%
21:00 +17°C° 0.1 mm 3 mps 739 mmHg 85%
22:00 +17°C° 0.1 mm 4 mps 739 mmHg 85%
23:00 +15°C° 0.1 mm 4 mps 738 mmHg 86%

15 July, Wednesday

Time Temperature Precipitation Wind Pressure Humidity
00:00 +15°C° 1.5 mm 5 mps 738 mmHg 89%
01:00 +14°C° 1.5 mm 5 mps 738 mmHg 92%
02:00 +14°C° 1.5 mm 6 mps 738 mmHg 95%
03:00 +14°C° 2.6 mm 6 mps 737 mmHg 95%
04:00 +13°C° 2.6 mm 6 mps 737 mmHg 96%
05:00 +13°C° 2.6 mm 6 mps 737 mmHg 97%
06:00 +13°C° 3.3 mm 6 mps 737 mmHg 97%
07:00 +11°C° 3.3 mm 6 mps 737 mmHg 97%
08:00 +11°C° 3.3 mm 6 mps 737 mmHg 97%
09:00 +13°C° 0.6 mm 6 mps 737 mmHg 97%
10:00 +13°C° 0.6 mm 6 mps 737 mmHg 97%
11:00 +13°C° 0.6 mm 6 mps 737 mmHg 96%
12:00 +13°C° 0.2 mm 6 mps 737 mmHg 96%
13:00 +14°C° 0.2 mm 5 mps 737 mmHg 95%
14:00 +14°C° 0.2 mm 5 mps 737 mmHg 94%
15:00 +14°C° 0.3 mm 5 mps 737 mmHg 95%
16:00 +14°C° 0.3 mm 5 mps 737 mmHg 96%
17:00 +14°C° 0.3 mm 5 mps 737 mmHg 96%
18:00 +14°C° 0.3 mm 5 mps 737 mmHg 96%
19:00 +14°C° 0.3 mm 5 mps 737 mmHg 96%
20:00 +14°C° 0.3 mm 5 mps 737 mmHg 97%
21:00 +14°C° 0.4 mm 4 mps 736 mmHg 97%
22:00 +14°C° 0.4 mm 4 mps 736 mmHg 97%
23:00 +14°C° 0.4 mm 4 mps 736 mmHg 98%

16 July, Thursday

Time Temperature Precipitation Wind Pressure Humidity
00:00 +14°C° 0.6 mm 4 mps 736 mmHg 98%
01:00 +14°C° 0.6 mm 4 mps 736 mmHg 98%
02:00 +14°C° 0.6 mm 3 mps 736 mmHg 98%
03:00 +14°C° 0.4 mm 3 mps 736 mmHg 98%
04:00 +14°C° 0.4 mm 3 mps 736 mmHg 98%
05:00 +14°C° 0.4 mm 3 mps 735 mmHg 98%
06:00 +16°C° 0.2 mm 3 mps 736 mmHg 97%
07:00 +16°C° 0.2 mm 3 mps 736 mmHg 96%
08:00 +16°C° 0.2 mm 3 mps 736 mmHg 95%
09:00 +17°C° 0.1 mm 4 mps 736 mmHg 92%
10:00 +17°C° 0.1 mm 4 mps 736 mmHg 89%
11:00 +18°C° 0.1 mm 4 mps 736 mmHg 86%
12:00 +18°C° 0.3 mm 4 mps 737 mmHg 86%
13:00 +18°C° 0.3 mm 4 mps 737 mmHg 85%
14:00 +18°C° 0.3 mm 4 mps 737 mmHg 85%
15:00 +17°C° 0.1 mm 4 mps 737 mmHg 87%
16:00 +15°C° 0.1 mm 4 mps 737 mmHg 89%
17:00 +14°C° 0.1 mm 4 mps 737 mmHg 92%
18:00 +14°C° 0 mm 4 mps 737 mmHg 92%
19:00 +13°C° 0 mm 4 mps 737 mmHg 92%
20:00 +13°C° 0 mm 3 mps 738 mmHg 92%
21:00 +13°C° 0 mm 3 mps 738 mmHg 92%
22:00 +12°C° 0 mm 3 mps 738 mmHg 93%
23:00 +12°C° 0 mm 3 mps 738 mmHg 94%

17 July, Friday

Time Temperature Precipitation Wind Pressure Humidity
00:00 +12°C° 0 mm 3 mps 738 mmHg 94%
01:00 +12°C° 0 mm 3 mps 738 mmHg 94%
02:00 +12°C° 0 mm 3 mps 738 mmHg 95%
03:00 +12°C° 0.1 mm 3 mps 738 mmHg 95%
04:00 +11°C° 0.1 mm 3 mps 738 mmHg 96%
05:00 +11°C° 0.1 mm 3 mps 738 mmHg 97%
06:00 +11°C° 0.1 mm 3 mps 738 mmHg 97%
07:00 +11°C° 0.1 mm 3 mps 738 mmHg 96%
08:00 +12°C° 0.1 mm 3 mps 739 mmHg 96%
09:00 +12°C° 0.1 mm 3 mps 739 mmHg 96%
10:00 +12°C° 0.1 mm 3 mps 739 mmHg 96%
11:00 +13°C° 0.1 mm 3 mps 740 mmHg 96%
12:00 +13°C° 0 mm 3 mps 740 mmHg 94%
13:00 +13°C° 0 mm 3 mps 740 mmHg 93%
14:00 +14°C° 0 mm 3 mps 741 mmHg 91%
15:00 +14°C° 0 mm 3 mps 741 mmHg 90%
16:00 +14°C° 0 mm 3 mps 741 mmHg 89%
17:00 +15°C° 0 mm 2 mps 741 mmHg 88%
18:00 +15°C° 0 mm 2 mps 741 mmHg 89%
19:00 +15°C° 0 mm 2 mps 741 mmHg 91%
20:00 +14°C° 0 mm 1 mps 742 mmHg 93%
21:00 +14°C° 0 mm 1 mps 742 mmHg 94%
22:00 +13°C° 0 mm 1 mps 742 mmHg 95%
23:00 +13°C° 0 mm 1 mps 742 mmHg 96%
Show more